Wind_Speed
38 39 39 39 39 40 40 41 41 42 43 43 43 44 44 45 45 45 45 44 44 43 43 42 41 40 40 40 39 39 39 38 38 38 38 38 38 38 38 38 37 37 37 37 37 37 37 37 38 38 38 38 38 38 38 39 39 39 39 40 40 40 41 41 41 42 42 43 43 43 43 43 43 43 43 43 43 43 44 44 45 45 46 46 46 46
39 39 39 39 39 40 41 41 41 42 43 43 43 44 44 44 45 45 45 44 44 43 42 42 41 40 40 40 39 39 39 39 39 39 39 39 39 39 39 39 38 38 38 38 38 38 38 38 38 38 38 38 38 39 39 39 39 39 40 40 40 41 41 42 42 43 43 43 44 44 44 44 44 44 44 44 44 44 45 45 46 46 47 47 47 47
39 39 40 40 40 41 41 42 42 42 43 43 44 44 44 44 44 44 44 44 43 43 42 41 41 40 40 40 40 40 40 40 40 40 40 40 40 40 40 39 39 39 39 39 38 38 38 38 38 38 38 38 38 39 39 39 39 39 40 40 40 41 41 42 43 43 44 44 44 44 44 44 44 44 45 45 45 46 46 47 47 48 48 48 48 48
39 39 40 40 40 41 41 42 42 43 43 44 44 44 44 44 44 44 43 43 42 42 41 41 40 40 40 40 40 40 40 40 40 41 41 41 41 41 40 40 40 40 39 39 39 38 38 38 38 38 38 38 38 39 39 39 39 39 40 40 41 41 42 42 43 44 44 44 45 45 45 45 45 45 45 46 46 47 47 48 48 49 49 49 49 49
39 39 40 40 41 41 41 42 42 43 44 44 44 44 44 44 43 43 43 42 41 41 41 40 40 40 40 40 40 40 40 41 41 41 41 41 41 41 41 41 40 40 39 39 39 38 38 38 38 38 38 38 38 38 39 39 39 39 40 40 41 41 42 43 43 44 44 45 45 45 45 46 46 46 47 47 47 48 49 49 50 50 50 50 50 50
39 39 40 41 41 41 41 42 42 43 43 44 44 44 43 43 43 42 42 41 41 40 40 40 40 40 40 40 40 40 40 41 41 41 41 41 42 41 41 41 41 40 40 39 39 38 38 38 38 38 38 38 38 38 39 39 39 39 40 40 41 42 42 43 44 44 45 45 45 46 46 47 47 47 48 48 49 49 50 50 51 51 51 51 51 51
39 40 40 41 41 41 41 42 42 43 43 43 43 43 43 43 42 42 41 41 40 40 40 40 39 39 39 40 40 40 40 40 40 41 41 41 41 41 41 41 40 40 39 39 38 38 38 38 38 38 38 38 38 38 38 39 39 39 40 40 41 42 42 43 44 44 45 45 46 46 47 47 48 48 49 50 50 51 51 51 52 52 52 52 52 52
40 40 41 41 41 41 42 42 42 43 43 43 43 42 42 42 42 41 41 41 40 40 39 39 39 39 39 39 40 40 40 40 40 40 40 40 41 41 40 40 40 39 39 39 38 38 38 38 38 38 38 38 38 38 38 39 39 39 40 41 41 42 42 43 44 44 45 46 46 47 48 48 49 50 50 51 51 52 52 53 53 53 53 53 53 53
40 40 41 41 41 41 42 42 43 43 43 43 42 42 41 41 41 40 40 40 40 39 39 38 38 38 38 38 39 40 40 40 40 40 40 40 40 40 40 39 39 39 39 38 38 38 38 38 38 38 38 38 38 38 38 39 39 39 40 41 41 42 43 43 44 45 45 46 47 48 48 49 50 51 51 52 52 53 53 54 54 54 54 54 55 55
40 40 40 41 41 41 41 42 43 43 42 42 42 42 41 41 40 40 39 39 38 38 38 38 37 37 37 37 38 39 39 40 40 40 40 40 39 39 39 38 38 38 38 38 38 38 38 38 38 38 38 38 38 38 38 39 39 40 40 41 42 42 43 43 44 45 46 46 47 48 49 50 51 52 52 53 54 54 54 55 55 55 55 56 56 56
40 40 40 41 41 41 41 42 42 42 42 42 42 42 41 41 40 39 39 38 37 37 37 37 37 36 36 37 37 38 38 39 39 40 40 39 39 39 38 38 38 37 37 37 37 37 37 38 38 38 38 38 38 38 39 39 40 40 41 41 42 42 43 44 44 45 46 47 47 48 49 50 51 52 53 54 55 55 56 56 56 56 57 57 57 57
40 40 40 40 41 41 41 42 42 42 41 41 40 40 41 40 40 39 39 38 37 36 36 36 36 35 35 36 36 37 37 38 38 38 39 39 39 38 38 38 37 37 37 37 37 37 37 38 38 38 38 38 39 39 39 40 40 40 41 41 42 43 43 44 45 45 46 47 48 49 50 51 52 53 54 55 55 56 56 57 57 58 58 58 58 59
40 40 40 40 40 41 41 41 41 41 40 40 39 39 39 39 39 39 39 38 37 36 35 35 34 34 34 35 36 36 37 37 37 37 37 37 37 38 38 37 37 37 37 37 37 37 37 38 38 38 38 39 39 39 40 40 40 41 41 42 42 43 43 44 45 45 46 47 48 49 50 51 52 53 54 55 56 57 57 58 58 59 59 59 60 60
39 39 40 40 40 40 40 40 40 39 39 39 39 38 39 38 38 38 38 37 37 36 35 34 33 33 33 34 35 36 36 37 37 36 36 36 36 37 37 37 37 37 37 37 37 37 37 38 38 38 39 39 39 40 40 40 41 41 41 42 42 43 44 44 45 46 46 47 48 49 50 51 52 54 55 56 56 57 58 58 59 60 60 60 61 61
39 39 39 39 39 39 39 39 39 38 38 38 38 38 38 38 37 37 37 36 36 36 35 34 33 32 32 33 34 36 36 37 36 36 35 34 35 36 36 37 36 36 36 36 36 36 37 37 38 38 38 39 39 40 40 40 41 41 42 42 43 43 44 44 45 46 47 47 48 50 50 52 53 54 55 56 57 58 58 59 60 60 61 61 62 62
38 38 38 38 38 38 38 38 38 37 37 37 37 37 36 36 36 36 36 36 35 35 34 33 32 31 31 32 33 35 36 37 36 35 34 33 33 34 36 36 36 36 35 35 36 36 37 37 37 38 38 38 39 39 40 40 40 41 41 42 42 43 44 44 45 46 47 48 49 50 51 52 53 54 55 56 57 58 59 59 60 61 61 62 62 63
37 37 37 37 37 37 37 37 37 37 37 36 36 36 35 35 35 35 35 35 35 34 34 33 31 30 29 30 32 34 36 37 37 35 33 32 32 33 35 35 35 35 35 35 35 36 36 37 37 37 37 38 38 39 39 39 40 40 41 41 42 43 43 44 45 46 47 48 49 50 51 52 53 54 55 56 57 58 59 60 60 61 62 62 63 63
37 36 36 36 36 35 35 35 35 36 36 35 35 34 34 34 34 34 34 34 34 33 33 32 31 30 29 29 30 33 35 36 36 35 33 31 31 32 33 34 35 34 34 34 35 35 36 36 36 37 37 37 37 38 38 39 39 40 40 41 41 42 43 44 45 45 47 48 49 50 51 52 53 54 55 56 57 58 59 59 60 61 62 62 63 63
36 36 35 35 34 34 34 34 34 34 34 34 33 33 32 32 32 32 32 32 32 33 32 32 31 30 29 29 30 32 34 35 36 35 33 32 31 31 32 33 34 34 33 33 34 35 35 35 35 35 36 36 36 37 37 37 38 39 39 40 41 41 42 43 44 45 46 47 48 50 51 52 53 54 55 56 57 57 58 59 60 61 61 62 62 63
35 35 34 34 33 33 32 32 33 33 33 33 32 31 31 31 31 31 31 31 31 31 31 31 30 30 29 29 30 31 33 35 35 35 34 32 31 31 32 33 33 33 32 33 33 34 34 34 34 34 34 34 35 35 36 36 37 37 38 39 40 41 42 43 44 45 46 47 48 49 50 51 52 53 54 55 56 57 58 58 59 60 61 61 62 62
33 33 33 32 32 32 31 31 32 32 32 32 31 30 29 29 29 29 30 30 30 31 30 30 30 30 29 29 29 31 33 34 35 35 34 33 31 30 31 32 32 32 31 32 32 32 33 33 32 32 32 33 33 34 34 35 35 36 37 38 39 40 41 42 43 44 45 46 47 48 49 50 51 52 53 54 55 56 57 57 58 59 60 60 61 62
32 31 31 31 31 30 30 30 30 30 30 30 29 29 29 28 28 28 29 29 30 30 30 30 29 29 29 29 29 30 32 34 35 35 35 33 31 30 31 31 32 31 31 31 31 31 31 31 31 31 31 32 32 33 33 34 35 35 36 37 38 39 40 41 42 43 44 45 46 47 48 49 50 51 52 53 54 54 55 56 57 58 58 59 60 60
31 31 30 30 30 29 29 29 29 29 29 29 28 28 28 28 28 28 28 29 29 29 29 29 29 28 28 28 29 30 31 33 35 35 35 33 31 30 31 31 31 31 30 30 31 31 31 30 30 31 31 31 32 32 33 33 34 35 36 37 38 39 40 41 42 43 44 45 46 47 48 48 49 50 51 52 52 53 54 54 55 56 56 57 58 58
31 30 29 29 28 28 28 28 27 27 27 27 27 27 27 27 27 28 28 28 29 29 29 28 28 27 27 27 28 28 30 32 34 35 35 33 32 31 30 31 31 31 30 30 31 31 31 30 30 31 31 32 32 32 33 34 34 35 36 37 38 39 40 41 42 43 44 45 46 46 47 48 48 49 50 51 51 52 52 53 53 54 54 55 55 56
30 29 28 28 27 27 27 26 26 26 26 26 26 27 27 27 27 28 28 28 29 29 28 28 27 26 26 26 26 27 29 32 33 34 34 33 32 31 31 31 31 31 31 31 31 32 32 31 31 32 32 33 33 33 34 34 35 35 36 37 38 39 40 41 42 43 44 44 45 46 46 47 47 48 49 49 50 50 51 51 52 52 52 53 54 54
29 28 28 27 26 26 25 25 25 25 25 26 26 26 27 27 27 28 28 28 29 29 28 27 27 26 26 26 26 26 28 30 32 33 34 33 32 31 31 32 33 33 33 33 33 33 33 33 33 33 34 34 34 34 34 35 35 36 36 37 38 39 40 41 41 42 43 44 44 45 45 46 46 47 47 48 49 49 49 50 50 51 51 52 52 53
28 27 27 26 26 25 25 25 25 25 25 26 26 27 27 27 28 28 28 29 29 29 28 28 27 26 26 25 25 25 27 29 31 33 33 33 32 31 32 33 34 35 35 35 35 35 35 35 35 35 35 35 35 35 35 35 36 36 37 37 38 38 39 40 41 41 42 43 43 44 45 45 46 46 47 47 48 48 49 49 49 50 50 51 51 52
27 27 26 26 25 25 25 24 25 25 25 26 27 27 28 28 28 28 28 29 29 29 29 28 27 26 25 24 24 25 26 29 31 32 32 32 32 32 33 34 35 36 37 38 37 37 37 37 36 36 36 36 36 36 36 36 36 37 37 37 38 38 39 39 40 41 41 42 43 43 44 45 45 46 47 47 47 48 48 48 48 49 49 49 50 50
27 26 26 25 25 25 25 25 25 25 26 27 27 28 28 29 29 29 29 29 29 29 28 28 27 26 26 25 24 24 26 29 31 32 32 32 32 33 34 35 36 38 39 39 39 38 38 37 37 37 37 37 37 36 37 37 37 37 37 38 38 38 39 39 40 40 41 42 43 43 44 45 45 46 46 47 47 47 47 47 47 47 47 47 47 47
26 26 26 25 25 25 25 25 25 26 26 27 28 28 29 29 29 29 29 29 29 28 28 27 27 26 26 25 24 24 26 29 31 33 33 33 33 34 35 36 37 38 40 41 41 40 39 38 38 38 38 38 38 37 37 38 38 38 38 39 39 39 39 40 41 41 42 42 43 44 44 45 45 46 46 46 46 46 45 45 45 45 45 45 44 44
26 26 26 26 26 26 26 26 26 27 27 28 28 29 29 29 29 29 29 29 28 28 27 27 26 26 26 26 25 25 26 29 31 33 33 34 34 35 36 36 37 39 40 41 42 42 41 39 38 38 39 39 39 38 38 39 39 39 40 40 40 40 41 41 42 42 42 43 43 44 44 45 45 45 45 45 44 44 43 42 42 42 42 42 42 42
26 26 26 26 26 26 26 27 27 27 27 28 28 29 29 29 29 29 29 28 28 27 26 26 26 26 26 26 25 26 27 29 32 33 34 35 35 36 36 37 38 39 40 41 42 43 43 41 40 39 39 39 39 39 39 39 40 40 40 41 41 41 42 42 42 43 43 43 44 44 44 44 44 44 44 43 42 41 41 40 40 39 40 40 40 41
25 26 26 26 26 27 27 27 27 27 28 28 29 29 29 29 29 29 28 28 27 27 26 25 25 25 25 25 26 27 28 30 32 34 35 35 36 37 37 38 38 39 40 40 41 42 43 43 42 41 40 40 40 39 39 40 40 40 41 41 41 42 42 42 42 43 43 44 44 44 44 44 43 43 42 41 41 40 39 38 38 38 38 39 40 40
25 26 26 26 27 27 27 27 27 28 28 28 28 29 29 28 28 28 28 27 27 26 25 25 25 25 25 25 26 27 29 31 33 35 36 37 37 38 38 38 39 40 40 41 41 42 42 42 42 42 41 40 40 39 39 39 40 40 40 41 41 42 42 42 43 43 44 44 44 44 44 43 43 42 41 40 39 38 38 37 36 36 37 38 39 40
26 26 26 26 27 27 27 27 27 28 28 28 28 28 28 28 28 27 27 27 26 26 25 25 25 25 25 26 27 28 29 32 34 36 37 38 38 39 39 39 40 41 41 41 42 42 42 42 42 42 42 41 40 39 38 39 39 40 40 41 41 42 42 43 43 44 44 44 44 44 44 43 43 42 41 40 38 38 37 36 36 35 36 37 38 39
26 26 27 27 27 27 27 27 27 28 28 28 28 28 28 27 27 27 26 26 26 25 25 25 25 25 26 27 28 29 30 32 34 36 37 38 39 40 40 40 41 41 41 42 42 42 42 41 41 41 41 41 40 39 38 38 39 39 40 41 42 42 43 43 44 44 45 45 45 44 44 43 42 41 40 38 37 37 36 35 35 35 36 36 37 38
26 26 27 27 27 27 27 27 27 27 28 28 28 27 27 27 27 26 26 26 25 25 24 24 25 26 27 28 29 30 31 32 34 35 37 38 39 40 40 41 41 41 41 41 41 41 41 41 41 40 40 40 40 40 40 39 39 40 41 42 42 43 43 44 44 44 45 45 45 44 43 42 41 40 38 37 36 36 36 35 35 35 36 36 37 37
26 26 27 27 27 27 27 27 27 27 27 27 27 27 27 26 26 26 26 25 25 24 24 25 25 26 28 29 31 32 32 33 34 35 37 38 39 40 40 40 40 40 40 40 41 41 41 41 41 41 40 40 40 40 40 40 41 41 42 43 43 43 44 44 44 44 44 44 44 43 42 40 39 38 37 36 36 36 36 36 36 36 36 37 37 37
26 26 27 27 27 26 26 26 27 27 27 27 27 26 26 26 26 25 25 25 25 25 25 25 25 26 28 29 31 32 33 34 35 35 37 38 39 39 40 40 40 39 39 39 39 40 40 40 40 40 41 41 41 40 40 41 42 43 43 44 44 43 43 44 44 44 44 43 42 41 40 38 37 36 36 36 36 36 37 37 37 37 37 38 38 38
26 26 27 27 26 26 26 26 26 26 26 26 26 26 26 26 25 25 25 25 25 25 25 26 26 27 28 29 30 31 32 33 34 35 36 37 38 39 39 39 39 39 39 38 38 38 38 39 39 40 40 41 41 41 41 41 42 43 44 45 45 44 43 43 43 43 42 42 41 39 38 37 35 35 35 35 36 37 38 38 38 38 38 38 38 38
26 26 26 26 26 26 26 26 26 26 26 26 26 26 26 25 25 25 25 25 26 26 26 27 27 27 28 29 30 31 32 33 34 35 36 37 38 38 38 38 39 38 38 38 38 38 38 38 38 39 40 40 41 41 42 42 42 43 44 45 45 44 43 42 42 42 41 40 39 37 36 35 34 34 35 36 37 38 39 39 39 39 38 38 37 37
26 26 26 26 26 26 26 26 26 26 26 26 26 26 25 25 25 25 25 26 26 27 27 27 28 28 28 29 30 31 32 33 35 36 36 37 37 38 38 38 38 38 38 38 37 37 37 37 38 39 39 40 41 42 42 42 42 42 43 44 44 44 43 42 41 40 40 39 37 36 35 34 34 35 35 37 38 39 39 40 39 39 38 38 37 36
26 26 26 26 26 26 26 26 26 26 26 26 26 26 26 26 26 26 26 26 27 27 28 28 29 29 29 30 30 31 32 33 35 36 36 37 37 37 37 37 37 37 37 37 37 37 37 37 37 38 39 40 41 41 42 42 42 42 42 43 44 44 44 42 41 39 38 36 35 34 34 34 35 36 37 38 39 40 40 40 40 39 38 37 37 36
26 26 26 26 26 26 26 25 25 25 25 25 26 26 26 26 26 26 27 27 27 28 28 29 29 30 31 31 31 32 32 33 34 35 36 36 36 37 37 37 37 37 37 37 37 37 37 37 37 38 38 39 40 41 42 42 42 42 42 42 42 43 43 42 41 39 37 35 34 33 33 34 36 37 38 40 41 41 41 41 40 39 38 37 36 36
25 26 26 26 25 25 25 25 25 25 25 25 26 26 26 27 27 27 27 28 28 28 29 30 30 31 31 32 33 33 33 33 34 34 35 35 35 36 36 36 36 36 36 36 37 37 37 38 38 38 38 38 39 40 41 41 42 42 42 42 42 42 42 41 40 38 36 34 33 33 34 35 37 39 41 42 42 42 42 41 41 39 38 37 36 36
25 25 25 25 25 25 25 25 25 25 25 25 26 26 27 27 27 27 28 28 28 29 30 30 31 32 32 33 33 34 34 34 34 34 34 34 34 35 35 35 35 35 35 36 36 36 37 37 37 38 38 38 38 39 39 40 41 42 42 42 41 41 41 39 38 37 35 34 34 34 35 37 39 41 43 44 44 44 43 42 41 40 39 37 37 36
25 25 25 25 25 24 24 24 24 24 25 25 26 26 27 27 27 28 28 28 29 29 30 31 31 32 33 33 34 34 34 34 34 34 34 34 34 34 34 34 34 34 34 35 35 35 35 36 36 37 37 38 38 38 39 40 41 42 42 42 42 41 40 39 37 36 35 35 35 35 37 39 41 43 44 45 45 45 43 42 41 40 39 38 38 37
24 24 24 24 24 24 24 24 24 24 25 25 26 26 26 27 27 28 28 29 29 30 30 31 31 32 33 33 34 34 34 34 34 34 34 34 34 34 34 34 34 34 34 34 34 34 34 34 34 35 36 37 38 39 39 40 41 42 42 43 43 42 41 39 37 36 35 35 35 37 39 41 43 44 46 47 47 46 44 43 41 40 39 39 39 38
24 24 24 24 24 24 24 24 24 24 24 25 25 26 26 27 27 28 28 29 29 30 30 31 31 32 32 33 33 34 34 34 34 35 35 35 35 34 34 34 34 34 34 34 34 34 34 34 34 34 35 36 38 39 40 41 41 42 43 43 43 42 41 39 37 36 35 36 36 38 40 42 43 45 47 48 48 47 45 43 41 40 40 40 40 40
23 23 23 23 23 23 24 24 24 24 24 25 25 25 26 26 27 27 28 29 29 30 30 31 31 31 32 32 33 33 33 34 34 34 34 35 35 35 34 34 34 34 34 34 34 35 35 35 34 33 33 35 36 38 40 41 42 42 42 42 42 41 40 39 37 36 36 36 37 39 41 42 44 46 47 48 49 48 46 44 42 41 41 41 42 42
23 23 23 23 23 23 24 24 24 24 24 24 24 25 25 26 26 27 28 28 29 30 30 30 31 31 32 32 32 33 33 33 33 34 34 34 34 34 34 34 35 35 35 36 36 36 36 36 35 33 32 33 34 36 38 40 41 42 42 42 41 40 40 39 37 37 36 37 38 40 42 43 45 46 47 49 49 49 48 45 43 42 42 42 43 44
Wind_Direction
285 285 286 286 287 289 290 291 291 292 292 292 293 293 294 294 295 295 295 295 295 295 295 294 294 294 293 292 291 290 289 288 287 286 285 285 285 285 284 285 284 284 284 284 284 284 284 284 284 284 284 284 284 284 284 284 284 284 284 283 283 283 283 282 282 282 281 281 280 280 279 278 278 277 277 276 277 277 278 279 280 281 282 283 284 285
284 285 285 286 287 289 289 290 290 291 291 292 292 293 293 294 294 295 295 295 294 294 294 294 294 293 292 291 291 290 289 288 287 287 286 286 286 286 286 286 285 285 285 285 285 284 284 284 284 284 284 284 284 284 284 284 284 284 284 284 284 283 283 283 282 282 281 281 280 280 279 278 278 277 277 277 277 278 278 279 280 281 282 283 284 285
284 285 286 287 288 289 289 290 290 290 291 291 292 293 293 293 294 294 294 294 294 294 294 293 293 292 291 291 290 289 289 288 288 287 287 287 287 287 286 286 286 286 286 285 285 285 285 284 284 284 284 285 285 285 285 285 285 284 284 284 284 284 284 283 283 282 282 281 280 280 279 278 278 278 277 278 278 278 279 280 281 282 283 284 285 286
285 286 287 287 288 289 289 290 290 291 291 292 292 293 293 293 293 293 293 293 293 293 293 293 292 291 291 290 289 289 288 288 288 288 288 287 287 287 287 287 286 286 286 286 285 285 285 284 284 284 285 285 285 285 285 285 285 285 285 285 285 284 284 284 283 282 282 281 281 280 279 279 278 278 278 278 279 279 280 281 281 282 283 284 285 286
285 286 286 287 288 289 289 290 290 291 292 292 292 293 293 293 293 293 293 293 293 292 292 292 291 290 290 289 289 288 288 288 288 288 288 288 288 288 287 287 287 287 286 286 285 285 285 285 285 285 285 285 285 286 286 286 286 286 286 286 285 285 284 284 283 283 282 281 281 280 280 279 279 279 279 279 279 280 280 281 282 283 284 285 286 287
285 286 286 287 288 289 289 290 290 291 292 292 292 292 293 292 292 292 292 292 292 291 291 290 290 289 289 288 288 288 288 288 288 288 288 288 288 288 288 288 288 287 287 286 286 286 285 285 285 285 286 286 286 286 287 287 287 287 287 286 286 285 284 284 283 283 282 282 281 281 280 280 279 279 279 280 280 280 281 282 283 283 284 285 286 287
286 286 287 288 288 289 289 290 290 291 291 292 292 292 292 292 292 292 292 291 291 290 290 289 289 289 289 288 288 288 288 288 288 288 288 288 288 288 288 288 288 288 288 287 287 286 286 286 286 286 287 287 287 287 288 288 288 288 287 287 286 285 285 284 283 283 283 282 282 281 281 281 280 280 280 280 281 281 282 282 283 284 285 286 287 287
287 287 288 288 289 289 290 290 291 291 291 291 291 291 291 291 291 291 291 290 290 289 289 289 289 289 288 288 288 288 288 287 287 287 287 287 287 287 288 288 288 288 288 288 288 288 288 288 288 288 288 288 288 289 289 289 289 288 288 287 286 286 285 284 284 283 283 283 282 282 282 282 281 281 282 282 282 282 283 284 284 285 286 287 287 288
287 288 288 289 289 290 291 291 291 291 291 291 291 290 290 290 290 290 290 289 289 289 289 289 289 289 288 288 288 288 288 288 287 287 287 287 287 287 287 287 287 288 288 288 289 289 289 289 289 289 289 290 290 290 290 289 289 289 288 287 287 286 285 285 284 284 284 283 283 283 283 283 283 283 283 283 283 284 284 285 285 286 287 287 288 288
288 288 289 289 290 290 291 291 291 291 291 291 291 290 290 290 290 289 289 289 289 289 289 289 289 289 288 288 288 288 289 289 288 288 288 288 288 287 288 288 288 288 288 289 289 290 290 290 291 291 291 291 291 291 291 290 290 289 288 288 287 287 286 285 285 285 284 284 284 283 283 283 283 284 284 284 284 285 285 286 286 287 287 288 288 288
288 289 289 289 290 290 290 290 290 290 291 291 291 291 291 291 290 290 289 289 289 289 289 289 289 289 289 289 289 289 289 289 289 289 289 289 289 289 289 289 289 289 290 290 290 291 291 291 292 292 292 292 292 292 291 291 290 290 289 288 288 287 287 286 286 285 285 285 284 284 284 284 284 284 285 285 285 286 286 287 287 287 288 288 288 288
288 289 289 289 290 290 290 290 290 290 291 291 291 291 291 291 291 291 290 290 290 289 289 290 290 290 290 290 290 289 289 289 289 289 290 290 291 291 291 291 291 291 291 292 292 292 292 292 293 293 293 293 293 293 292 291 291 290 289 289 288 288 287 287 286 286 286 285 285 285 285 285 285 285 285 285 286 286 287 287 287 288 288 288 288 288
288 288 289 289 289 289 290 290 290 290 291 291 291 291 291 291 291 291 291 291 291 291 291 291 291 291 291 291 291 290 289 289 288 289 290 291 291 292 292 292 293 293 293 293 293 293 293 294 294 294 294 294 294 293 292 292 291 290 290 289 289 288 288 287 287 287 286 286 286 285 285 285 285 285 285 286 286 286 287 287 288 288 288 288 288 288
288 288 288 288 289 289 289 290 290 290 290 290 291 291 290 291 291 291 292 292 292 292 293 292 292 292 292 292 291 291 290 289 289 289 290 291 292 292 292 292 292 292 293 293 293 294 294 294 294 294 294 294 294 293 293 292 291 291 290 289 289 289 288 288 288 287 287 286 286 286 285 285 285 285 285 286 286 286 287 287 288 288 288 288 288 288
287 287 288 288 288 289 289 290 290 290 290 290 291 291 291 291 291 292 292 292 293 293 293 293 293 293 294 293 293 291 290 290 289 290 290 291 292 292 292 291 291 292 292 293 293 293 293 294 294 294 294 293 293 293 292 292 291 291 290 290 290 289 289 288 288 288 287 287 286 286 285 285 285 285 285 286 286 286 287 287 287 288 288 288 288 288
286 287 287 287 288 289 289 290 290 290 290 291 291 291 291 291 292 292 293 293 293 293 293 293 293 294 294 294 294 292 291 290 290 290 291 292 292 292 291 291 291 291 292 292 293 293 293 293 293 293 293 293 292 292 292 291 291 291 290 290 290 289 289 289 288 288 287 287 286 286 286 285 285 286 286 286 286 286 287 287 287 287 287 287 287 287
285 286 286 287 288 288 289 290 290 291 291 291 291 291 292 292 293 293 293 293 294 294 294 294 294 294 294 294 293 292 291 291 291 291 292 292 292 291 291 290 291 291 292 292 292 292 292 292 293 292 292 292 292 291 291 291 291 291 290 290 290 290 289 289 288 288 287 287 286 286 286 286 286 286 286 286 286 286 286 287 287 287 287 287 287 287
285 285 286 287 287 288 289 290 290 290 291 291 291 292 292 293 293 294 294 294 294 295 295 296 296 297 297 296 294 292 291 291 291 292 292 292 292 291 290 290 291 291 292 293 293 293 292 292 293 292 292 292 292 292 292 291 291 291 291 291 290 290 290 289 289 288 288 287 287 286 286 286 286 286 286 286 286 286 286 286 286 287 287 287 287 287
284 285 286 287 287 288 289 289 290 290 290 291 291 291 292 293 293 294 294 295 295 296 297 298 299 299 300 299 297 294 293 293 293 292 292 292 292 291 290 290 291 292 293 293 293 293 293 293 293 293 293 293 293 292 292 292 292 292 292 291 291 290 290 289 289 288 288 287 287 286 286 286 286 286 286 286 286 286 286 286 286 286 286 286 286 286
284 285 286 287 288 289 289 289 290 290 290 291 291 291 292 293 293 294 295 296 297 298 299 300 301 302 302 301 299 297 296 295 294 293 293 293 292 292 291 290 291 292 293 293 293 293 293 293 293 293 293 293 293 293 293 293 292 292 292 291 291 290 290 289 289 288 288 287 287 287 287 286 286 286 286 286 286 286 286 286 286 286 286 286 286 286
284 285 286 287 288 289 289 289 289 290 290 291 291 292 292 293 294 295 296 297 298 300 301 302 303 304 304 303 301 299 297 296 295 294 294 294 294 293 293 292 293 293 294 294 294 293 293 294 294 294 294 294 294 294 294 293 293 293 292 292 291 291 290 290 289 289 288 288 288 288 288 287 287 287 287 287 287 287 287 286 286 286 286 286 285 285
284 285 287 287 288 289 289 289 289 290 290 291 292 293 294 295 296 297 299 300 301 302 303 304 305 305 305 304 302 300 298 297 296 295 294 295 295 296 295 295 296 296 296 295 295 294 295 295 296 296 296 296 295 295 295 294 294 294 293 293 292 291 291 290 290 290 290 289 289 289 289 289 288 288 288 288 287 287 287 286 286 286 285 285 285 284
285 286 287 287 288 288 288 289 289 290 291 292 293 295 296 298 300 301 302 303 304 304 305 306 306 306 305 304 302 300 299 297 296 296 296 297 298 299 298 298 298 298 298 297 297 296 297 297 297 297 297 297 296 296 295 295 295 294 294 293 293 292 292 291 291 291 291 290 290 290 290 290 290 289 289 288 288 288 287 287 286 286 286 285 285 285
285 286 286 287 287 288 288 288 289 290 291 293 294 296 298 300 302 304 305 305 305 305 306 306 306 305 304 303 302 301 299 297 297 296 297 299 301 302 301 301 300 300 300 299 299 298 298 299 299 298 298 297 297 296 296 296 295 295 295 294 294 293 293 293 292 292 292 292 291 291 291 291 290 290 290 289 289 289 288 288 288 287 287 287 286 286
285 286 286 287 287 287 288 288 289 290 292 294 296 298 300 302 304 305 306 306 306 306 306 306 306 306 304 303 302 301 300 298 297 298 299 301 303 304 304 303 302 302 301 301 300 300 300 300 300 299 299 298 298 297 297 297 297 296 296 295 295 295 294 294 294 293 293 293 293 292 292 292 292 291 291 291 291 291 291 290 290 290 289 289 289 288
284 285 286 286 287 287 288 288 290 291 293 295 297 299 301 303 305 306 307 307 307 307 308 308 308 307 306 305 304 302 301 299 299 299 301 303 305 306 306 305 304 303 303 302 301 301 301 301 301 301 300 300 299 299 299 298 298 298 297 297 296 296 296 296 295 295 295 294 294 294 294 294 294 294 294 294 294 293 293 293 292 292 291 291 290 290
284 284 285 286 286 287 288 289 291 293 295 297 299 301 303 304 306 307 308 308 309 309 310 310 309 308 307 307 306 304 302 301 300 301 303 305 307 307 307 306 305 305 304 303 303 303 303 303 303 302 302 301 301 301 301 301 300 300 300 299 299 298 298 298 297 297 297 297 297 296 296 296 296 296 296 296 296 295 295 294 294 293 292 292 292 291
283 284 285 286 287 288 289 291 293 295 297 299 301 303 304 306 308 309 310 310 310 311 311 311 310 309 309 309 308 307 305 303 302 302 305 307 308 309 308 307 307 306 305 304 304 304 305 305 305 305 304 304 304 304 304 304 304 303 303 302 302 301 300 300 299 299 299 299 299 299 299 299 299 299 299 298 298 297 297 296 295 295 294 293 293 293
283 284 286 287 288 289 290 292 294 296 298 300 302 304 306 308 310 310 310 310 311 311 311 311 311 311 311 311 311 310 308 305 304 305 307 308 309 309 309 308 308 307 306 305 305 305 306 307 307 307 307 307 307 307 307 307 307 306 305 305 304 303 303 302 301 301 301 301 301 301 301 301 301 301 301 300 300 299 298 298 297 296 295 295 295 295
283 285 286 287 288 289 291 293 295 297 299 302 304 306 308 309 310 310 310 310 311 311 311 312 312 312 312 313 313 312 309 306 306 307 309 309 309 309 309 309 308 308 307 307 307 306 306 308 309 310 310 310 310 310 310 310 309 308 307 306 306 305 305 305 304 304 304 304 304 304 304 304 303 303 303 302 302 301 300 299 298 298 297 297 297 297
283 284 285 287 288 290 292 294 296 299 301 303 305 307 308 309 310 310 310 310 310 311 312 312 313 313 313 314 314 313 309 307 307 308 309 309 309 309 309 309 309 309 309 310 310 310 309 309 310 311 312 312 313 312 312 312 311 310 309 309 308 308 308 307 307 307 307 307 307 307 306 306 306 305 305 304 303 303 302 301 300 299 298 298 298 299
283 284 285 287 288 290 293 295 298 300 302 304 306 307 308 308 309 309 309 310 310 311 312 313 313 313 313 314 314 312 310 308 308 308 309 309 309 309 310 310 311 311 311 312 313 313 313 313 313 313 313 314 314 314 314 313 313 312 311 311 311 310 310 310 309 309 309 309 309 309 308 308 308 307 306 306 305 304 303 302 301 300 299 300 300 300
282 284 285 287 289 291 294 297 299 301 303 304 305 306 306 307 308 308 309 309 310 311 312 312 312 312 312 312 312 311 310 309 308 309 309 309 310 310 311 312 313 313 314 314 314 315 315 315 315 315 315 315 315 315 315 315 314 313 313 313 312 312 311 311 311 311 311 311 311 311 310 310 309 309 308 307 307 306 305 304 303 302 301 301 302 303
282 283 285 287 289 292 294 297 299 301 302 303 304 304 305 306 307 308 308 309 309 310 311 311 311 311 310 310 310 310 310 309 309 310 310 311 312 313 314 315 315 316 316 316 316 316 316 316 316 316 315 315 316 316 316 316 315 314 314 314 313 313 313 313 313 313 313 313 313 313 312 312 311 311 310 309 309 308 307 306 305 304 304 304 304 304
281 283 285 287 289 292 294 296 298 299 301 301 302 303 304 305 306 307 308 308 309 310 311 310 310 309 308 309 309 309 310 310 311 311 312 313 314 315 316 317 317 317 317 317 316 316 316 315 316 316 316 316 316 316 316 316 316 315 315 314 314 314 314 314 315 315 315 315 315 315 314 314 313 313 312 312 311 310 309 309 308 306 305 304 304 304
281 283 285 287 290 292 294 296 297 298 300 301 301 302 304 305 306 307 308 308 309 310 310 310 309 308 308 308 309 310 311 311 312 313 314 315 316 317 318 318 318 318 318 317 316 316 316 315 315 316 316 316 316 316 316 316 316 316 315 315 315 315 316 316 317 317 317 317 317 317 316 316 315 315 314 314 313 312 311 310 309 308 306 304 303 303
281 283 285 288 290 292 294 295 297 298 299 300 301 302 304 305 306 307 307 308 308 309 309 308 307 307 307 308 310 311 312 313 313 314 315 316 317 317 318 318 318 318 317 317 316 316 316 315 315 315 316 316 316 317 317 317 316 316 315 316 316 317 318 318 319 319 319 319 319 318 318 317 317 316 316 315 314 314 313 312 310 308 306 304 303 302
281 283 285 288 289 291 293 295 296 297 299 300 301 302 304 305 306 306 307 307 308 307 307 307 306 306 307 308 310 312 313 314 315 316 317 317 317 317 317 317 317 317 316 316 316 316 316 316 316 316 316 316 317 318 318 318 318 317 316 317 318 319 320 320 321 321 320 320 320 319 318 318 317 316 316 316 315 314 314 313 311 310 308 305 304 303
282 284 286 288 289 292 293 295 296 297 298 300 301 302 304 305 306 306 307 307 306 306 305 305 305 305 307 308 310 312 314 315 316 316 316 316 315 315 315 315 316 315 316 315 316 316 317 317 318 318 318 318 318 318 319 320 319 319 318 318 319 320 321 322 322 321 321 320 320 319 318 318 317 317 316 316 316 315 315 314 313 312 310 308 306 304
282 284 286 288 290 292 293 294 295 297 298 299 301 302 303 305 306 306 306 306 305 304 304 304 304 305 306 308 310 312 313 314 314 314 314 314 314 314 314 315 315 315 315 315 316 316 317 318 319 319 320 320 320 320 321 321 321 320 320 319 320 321 322 323 322 322 321 320 320 319 318 317 317 317 317 317 317 316 316 316 315 314 312 310 308 307
283 285 286 288 290 292 293 294 295 296 297 299 301 302 303 304 305 305 305 304 304 303 303 303 304 305 307 309 310 311 312 312 312 312 313 313 313 314 314 314 315 315 315 316 316 317 318 319 320 321 321 321 321 321 322 322 322 321 321 320 321 321 322 323 323 322 321 320 320 319 318 317 317 317 317 317 317 318 318 317 317 316 315 313 311 309
283 285 287 288 290 291 292 294 295 296 297 299 301 302 303 303 304 303 303 302 302 302 302 302 303 304 306 308 309 310 310 311 311 312 312 312 313 313 314 314 315 315 316 316 317 318 319 320 321 322 323 323 322 323 322 322 322 321 321 321 321 322 323 324 324 323 322 321 320 319 317 317 317 317 317 318 318 319 319 318 318 317 317 315 314 312
284 285 287 288 289 290 292 293 295 296 298 300 301 302 303 303 303 303 303 302 302 301 302 302 303 304 305 306 307 308 309 310 311 311 312 312 313 314 314 315 316 316 317 317 318 319 320 321 322 323 324 324 324 323 323 322 321 321 321 321 321 322 324 325 325 324 322 321 320 318 317 317 317 317 318 319 320 320 320 320 319 319 318 317 315 313
284 285 286 287 288 290 291 293 295 297 299 301 302 303 303 303 303 303 303 303 302 302 303 304 304 305 306 307 307 308 309 310 311 311 312 313 314 314 315 316 317 317 318 319 320 320 321 322 324 324 325 325 324 323 323 322 321 321 321 322 322 323 324 325 326 325 323 321 320 319 318 318 318 318 319 320 321 322 322 321 321 320 320 318 316 314
284 285 286 287 288 290 292 294 296 298 300 301 302 302 303 303 303 303 303 303 303 304 304 305 305 306 306 307 307 308 309 310 311 312 313 313 314 315 316 317 318 318 319 320 321 322 323 324 325 325 325 324 324 323 323 322 322 321 322 323 323 324 325 326 326 325 323 322 321 320 320 319 319 320 321 322 322 323 323 322 322 321 321 320 317 315
283 284 285 287 288 290 293 295 297 299 300 302 302 302 303 303 303 304 304 304 304 305 305 306 306 306 307 307 308 309 310 311 312 313 314 314 315 316 317 318 318 319 320 321 322 323 323 324 325 325 325 324 323 323 323 323 323 323 323 324 324 325 326 327 326 325 324 323 322 322 322 321 321 322 322 323 323 324 324 323 323 322 322 321 319 316
283 284 285 287 289 291 294 295 297 299 301 301 302 302 302 303 304 304 304 305 305 305 305 306 306 307 308 308 309 310 311 312 313 314 315 316 316 317 318 318 319 320 320 321 322 322 323 324 325 325 325 325 324 324 324 324 324 324 324 325 326 327 327 328 328 327 325 324 324 324 324 324 323 323 323 323 324 324 324 323 323 322 322 322 320 318
283 284 286 288 290 292 294 296 298 299 300 301 302 302 303 303 304 304 304 305 305 305 305 306 306 307 308 309 311 312 313 314 315 316 317 317 318 318 319 319 319 320 320 321 321 322 323 324 325 326 327 327 327 326 326 326 325 325 326 326 327 328 328 329 329 328 327 326 326 326 326 325 325 324 324 324 323 324 323 323 323 323 324 324 323 320
284 285 287 289 291 293 294 296 298 299 300 301 302 303 303 303 304 304 304 304 305 305 305 306 307 308 309 310 311 313 314 316 317 318 318 319 319 319 319 320 320 320 320 321 321 322 323 324 327 329 330 330 330 329 328 328 327 327 327 327 328 328 329 329 329 329 328 327 327 327 327 326 326 325 324 323 323 323 323 323 323 324 326 326 325 324
285 286 288 289 291 293 294 296 297 298 300 301 302 303 303 303 304 304 304 304 304 305 305 306 307 308 310 311 313 314 316 317 318 319 319 319 320 320 320 321 321 321 321 322 323 323 324 326 328 331 333 333 333 332 331 329 328 327 327 328 328 329 329 329 330 329 329 328 328 328 328 327 326 325 324 324 323 323 323 323 324 326 328 328 328 327
285 287 288 290 291 293 294 296 297 298 299 301 302 302 303 303 303 303 303 304 304 304 305 306 308 309 311 312 314 316 317 318 319 320 320 320 320 321 321 322 323 323 323 324 325 325 326 327 329 332 334 336 335 334 332 331 329 328 327 328 329 329 329 329 330 330 329 329 329 329 328 327 326 325 325 324 324 324 324 325 326 327 329 330 330 329
Height
3075 3074 3073 3073 3072 3071 3070 3070 3069 3068 3066 3065 3065 3064 3062 3061 3060 3059 3059 3058 3057 3056 3055 3054 3053 3052 3051 3050 3049 3048 3047 3046 3045 3044 3044 3043 3042 3041 3040 3040 3039 3038 3037 3036 3035 3035 3034 3033 3032 3031 3030 3030 3029 3028 3027 3026 3025 3025 3024 3023 3022 3021 3020 3020 3019 3018 3017 3017 3016 3015 3015 3014 3013 3013 3012 3012 3011 3010 3010 3009 3009 3008 3007 3006 3005 3005
3073 3072 3071 3070 3070 3069 3068 3067 3066 3065 3064 3063 3062 3061 3060 3059 3058 3057 3056 3055 3054 3053 3052 3051 3050 3049 3048 3047 3046 3045 3044 3043 3042 3041 3040 3040 3039 3038 3037 3036 3035 3035 3034 3033 3032 3031 3030 3030 3029 3028 3027 3026 3025 3025 3024 3023 3022 3021 3020 3020 3019 3018 3017 3016 3015 3015 3014 3013 3012 3011 3011 3010 3010 3009 3009 3008 3007 3007 3006 3005 3005 3004 3003 3002 3001 3001
3070 3069 3069 3068 3068 3067 3065 3065 3064 3063 3062 3060 3060 3059 3058 3057 3055 3055 3053 3052 3051 3050 3049 3048 3047 3046 3045 3044 3043 3042 3041 3040 3039 3038 3037 3036 3035 3035 3034 3033 3032 3031 3030 3030 3029 3028 3027 3026 3025 3025 3024 3023 3022 3021 3020 3020 3019 3018 3017 3016 3015 3015 3014 3013 3012 3011 3010 3009 3008 3008 3007 3006 3006 3005 3005 3004 3003 3003 3002 3001 3000 3000 2999 2998 2997 2997
3068 3067 3066 3066 3065 3064 3063 3062 3061 3060 3059 3058 3057 3056 3055 3055 3053 3052 3051 3050 3049 3047 3046 3045 3044 3043 3042 3041 3040 3039 3038 3037 3036 3035 3034 3033 3032 3031 3030 3030 3029 3028 3027 3026 3025 3025 3024 3023 3022 3021 3020 3020 3019 3018 3017 3016 3015 3014 3014 3013 3012 3011 3010 3009 3008 3007 3006 3005 3005 3004 3003 3002 3002 3001 3000 3000 2999 2999 2998 2997 2996 2995 2995 2994 2993 2992
3066 3065 3064 3063 3063 3061 3060 3060 3058 3057 3056 3055 3055 3054 3053 3052 3050 3050 3048 3047 3046 3045 3044 3043 3042 3040 3040 3038 3037 3036 3035 3034 3033 3031 3030 3030 3029 3028 3027 3026 3025 3025 3024 3023 3022 3021 3020 3020 3019 3018 3017 3016 3015 3014 3013 3013 3012 3011 3010 3009 3008 3007 3006 3005 3004 3003 3002 3001 3000 3000 2999 2999 2998 2997 2996 2996 2995 2995 2994 2993 2992 2991 2990 2990 2989 2988
3063 3063 3062 3061 3060 3059 3058 3057 3055 3055 3054 3053 3052 3051 3050 3049 3048 3047 3045 3045 3044 3042 3041 3040 3039 3038 3037 3035 3034 3033 3032 3031 3030 3029 3027 3026 3025 3024 3023 3022 3021 3021 3020 3019 3018 3017 3017 3016 3015 3014 3013 3012 3012 3011 3010 3009 3008 3007 3006 3005 3005 3004 3003 3002 3000 3000 2999 2998 2997 2996 2995 2995 2994 2993 2992 2992 2991 2990 2990 2989 2988 2987 2986 2985 2984 2983
3060 3060 3059 3058 3057 3056 3055 3054 3053 3052 3051 3050 3049 3048 3047 3046 3045 3044 3043 3042 3041 3040 3039 3037 3036 3035 3034 3033 3031 3030 3029 3028 3027 3026 3025 3023 3022 3021 3020 3019 3018 3017 3016 3015 3015 3014 3013 3012 3011 3010 3010 3009 3008 3007 3006 3005 3005 3004 3003 3002 3001 3000 2999 2998 2997 2996 2995 2994 2993 2992 2991 2990 2990 2989 2988 2987 2987 2986 2985 2984 2983 2982 2981 2980 2980 2979
3057 3056 3056 3055 3054 3053 3052 3051 3050 3049 3049 3047 3046 3045 3045 3044 3042 3041 3040 3039 3038 3037 3036 3035 3033 3032 3031 3030 3028 3027 3026 3025 3024 3023 3022 3020 3019 3018 3017 3016 3015 3014 3013 3012 3011 3010 3009 3008 3008 3007 3006 3005 3004 3003 3003 3002 3001 3000 2999 2998 2997 2996 2995 2994 2993 2992 2991 2990 2989 2988 2987 2986 2985 2984 2984 2983 2982 2981 2980 2980 2979 2978 2977 2976 2975 2974
3055 3054 3053 3052 3051 3050 3049 3048 3047 3046 3046 3045 3043 3042 3042 3040 3040 3038 3037 3036 3035 3034 3033 3032 3031 3030 3028 3027 3025 3024 3022 3021 3020 3020 3018 3017 3016 3015 3014 3013 3012 3011 3010 3008 3007 3006 3005 3005 3004 3003 3002 3001 3000 3000 2999 2998 2997 2996 2995 2995 2994 2993 2992 2990 2989 2988 2987 2986 2985 2984 2983 2982 2981 2980 2979 2978 2977 2976 2975 2975 2974 2973 2972 2971 2970 2969
3052 3051 3050 3049 3049 3048 3047 3045 3044 3043 3043 3042 3040 3039 3038 3037 3036 3035 3034 3033 3032 3031 3030 3029 3028 3027 3025 3024 3022 3021 3019 3018 3017 3016 3015 3014 3013 3012 3011 3010 3009 3007 3006 3005 3004 3003 3002 3001 3000 2999 2998 2998 2997 2996 2995 2995 2994 2993 2992 2991 2990 2989 2988 2987 2985 2985 2983 2982 2981 2980 2979 2978 2976 2975 2974 2973 2972 2971 2970 2970 2969 2968 2967 2966 2965 2964
3049 3048 3048 3046 3045 3045 3044 3043 3041 3040 3040 3039 3037 3036 3035 3034 3033 3032 3031 3030 3030 3028 3027 3026 3025 3024 3023 3021 3020 3018 3017 3015 3014 3012 3011 3010 3009 3008 3007 3006 3005 3004 3003 3002 3001 3000 2999 2997 2996 2995 2995 2994 2993 2992 2992 2991 2990 2989 2988 2987 2986 2985 2984 2983 2982 2980 2980 2978 2977 2976 2975 2973 2972 2971 2970 2968 2967 2966 2965 2964 2963 2963 2962 2961 2960 2959
3046 3045 3045 3044 3043 3042 3041 3040 3039 3038 3037 3036 3035 3033 3031 3030 3030 3029 3027 3026 3026 3025 3024 3023 3022 3021 3020 3018 3016 3015 3014 3013 3011 3009 3008 3007 3005 3005 3003 3002 3001 3000 2999 2998 2997 2996 2995 2994 2993 2992 2991 2990 2990 2989 2988 2987 2987 2986 2985 2984 2983 2981 2980 2979 2978 2977 2975 2974 2973 2972 2970 2969 2968 2966 2965 2964 2963 2961 2960 2959 2958 2957 2956 2955 2955 2954
3043 3043 3042 3041 3040 3039 3038 3037 3036 3035 3034 3033 3031 3030 3029 3027 3026 3025 3024 3023 3022 3022 3021 3020 3019 3018 3017 3015 3013 3012 3011 3010 3008 3007 3006 3004 3003 3001 3000 2999 2998 2997 2996 2995 2994 2993 2992 2990 2990 2989 2988 2987 2986 2986 2985 2984 2983 2982 2981 2980 2979 2978 2976 2975 2974 2973 2972 2970 2969 2968 2966 2965 2964 2962 2961 2959 2958 2957 2956 2955 2953 2952 2951 2950 2949 2948
3040 3040 3039 3038 3037 3036 3035 3034 3033 3032 3031 3030 3029 3027 3026 3025 3024 3022 3021 3020 3019 3018 3018 3017 3016 3015 3014 3012 3010 3008 3007 3006 3005 3004 3003 3002 3000 2999 2997 2996 2995 2994 2993 2992 2991 2990 2989 2988 2986 2986 2985 2984 2983 2982 2981 2980 2980 2979 2977 2976 2975 2974 2973 2971 2970 2969 2968 2966 2965 2964 2962 2961 2959 2958 2956 2955 2954 2952 2951 2950 2949 2947 2946 2945 2944 2943
3038 3037 3036 3035 3034 3033 3032 3031 3030 3029 3028 3027 3026 3025 3023 3022 3020 3020 3019 3017 3016 3015 3015 3014 3013 3012 3011 3009 3007 3005 3003 3002 3001 3001 3001 3000 2998 2996 2994 2993 2992 2991 2990 2989 2988 2987 2986 2985 2984 2983 2982 2981 2980 2979 2978 2977 2976 2975 2974 2972 2971 2970 2969 2968 2966 2965 2964 2962 2961 2960 2958 2956 2955 2954 2952 2950 2949 2948 2946 2945 2944 2943 2941 2940 2939 2938
3035 3034 3033 3032 3031 3030 3029 3028 3027 3026 3025 3024 3023 3022 3020 3019 3018 3017 3016 3015 3013 3012 3012 3011 3010 3010 3009 3006 3004 3001 3000 2998 2997 2998 2998 2997 2996 2994 2991 2990 2989 2989 2988 2987 2986 2985 2983 2982 2981 2980 2980 2979 2978 2976 2975 2974 2973 2971 2970 2969 2968 2966 2965 2964 2963 2961 2960 2958 2957 2955 2954 2952 2951 2949 2948 2946 2945 2943 2942 2940 2939 2938 2936 2935 2934 2932
3032 3031 3030 3030 3029 3027 3026 3025 3024 3023 3022 3021 3020 3019 3018 3016 3015 3014 3013 3012 3010 3009 3008 3008 3007 3007 3006 3005 3002 2999 2996 2994 2994 2994 2995 2994 2993 2991 2989 2987 2986 2986 2985 2985 2983 2982 2981 2980 2979 2978 2977 2976 2975 2974 2972 2971 2970 2968 2967 2965 2964 2963 2961 2960 2959 2957 2956 2954 2953 2951 2950 2948 2947 2945 2944 2942 2940 2939 2938 2936 2935 2933 2932 2930 2929 2927
3030 3029 3028 3027 3026 3025 3024 3023 3021 3020 3019 3018 3017 3016 3015 3014 3013 3011 3010 3009 3008 3006 3005 3005 3004 3003 3003 3002 3000 2997 2994 2991 2990 2990 2991 2991 2990 2989 2986 2985 2983 2983 2983 2982 2981 2979 2978 2977 2976 2975 2975 2973 2972 2971 2970 2968 2967 2965 2964 2962 2961 2960 2958 2957 2955 2954 2952 2950 2949 2947 2946 2944 2943 2941 2940 2938 2936 2935 2933 2931 2930 2929 2927 2925 2924 2922
3026 3026 3025 3024 3023 3022 3021 3020 3019 3018 3017 3016 3015 3014 3013 3011 3010 3009 3007 3006 3005 3004 3002 3001 3001 3000 2999 2998 2996 2994 2991 2989 2987 2987 2987 2988 2988 2986 2984 2982 2981 2980 2980 2980 2978 2977 2976 2975 2974 2973 2972 2970 2969 2968 2966 2965 2964 2962 2961 2959 2958 2956 2955 2953 2952 2950 2949 2947 2945 2944 2942 2940 2939 2937 2935 2934 2932 2930 2929 2927 2925 2924 2922 2920 2919 2917
3024 3023 3022 3021 3020 3019 3018 3017 3016 3015 3014 3013 3012 3011 3010 3009 3008 3006 3005 3003 3002 3001 3000 2999 2998 2997 2996 2995 2993 2991 2988 2986 2984 2983 2983 2984 2984 2984 2982 2980 2979 2978 2978 2977 2976 2975 2973 2973 2972 2971 2970 2968 2967 2965 2964 2962 2961 2959 2958 2956 2955 2953 2951 2950 2948 2946 2945 2943 2942 2940 2938 2937 2935 2933 2931 2930 2928 2926 2924 2922 2920 2919 2917 2916 2914 2913
3021 3020 3019 3019 3018 3017 3016 3015 3014 3013 3012 3011 3010 3009 3008 3007 3005 3004 3002 3001 3000 2998 2997 2996 2995 2994 2993 2992 2990 2988 2985 2983 2981 2980 2980 2980 2981 2980 2979 2978 2976 2976 2975 2975 2974 2972 2971 2970 2969 2968 2967 2965 2964 2963 2961 2960 2958 2956 2955 2953 2952 2950 2948 2946 2945 2943 2941 2940 2938 2936 2934 2933 2931 2929 2927 2925 2923 2921 2920 2918 2916 2915 2913 2911 2910 2908
3018 3017 3016 3016 3015 3014 3013 3012 3011 3010 3009 3008 3007 3006 3005 3004 3003 3001 3000 2999 2997 2995 2995 2994 2992 2991 2990 2989 2987 2985 2983 2980 2978 2977 2976 2977 2978 2978 2976 2975 2974 2973 2973 2972 2971 2970 2969 2968 2967 2965 2964 2963 2961 2960 2958 2957 2955 2954 2952 2950 2948 2946 2945 2943 2941 2939 2938 2936 2934 2932 2930 2929 2927 2925 2923 2921 2919 2917 2915 2913 2912 2910 2908 2906 2905 2903
3015 3015 3014 3013 3012 3012 3011 3010 3009 3008 3007 3006 3005 3003 3002 3001 3000 2999 2997 2996 2995 2993 2992 2991 2990 2989 2988 2987 2985 2983 2980 2978 2975 2974 2973 2973 2974 2975 2974 2972 2971 2970 2970 2969 2968 2967 2966 2965 2964 2963 2961 2960 2959 2957 2956 2954 2953 2951 2949 2947 2945 2943 2941 2939 2937 2935 2934 2932 2930 2928 2926 2924 2922 2920 2918 2916 2914 2912 2910 2909 2907 2905 2904 2902 2900 2898
3013 3012 3011 3011 3010 3009 3009 3008 3007 3005 3004 3003 3002 3001 3000 2998 2997 2996 2995 2993 2992 2991 2990 2989 2988 2987 2986 2984 2983 2981 2978 2975 2973 2971 2970 2970 2971 2971 2970 2969 2968 2967 2967 2966 2965 2964 2963 2962 2961 2960 2959 2957 2956 2955 2953 2951 2950 2948 2946 2944 2941 2940 2937 2935 2933 2931 2930 2928 2926 2924 2922 2920 2918 2916 2914 2912 2910 2908 2906 2904 2902 2900 2899 2896 2895 2893
3010 3009 3009 3008 3007 3007 3006 3005 3004 3003 3002 3001 3000 2998 2997 2996 2995 2993 2992 2991 2990 2988 2987 2986 2986 2985 2983 2982 2980 2979 2976 2973 2970 2969 2967 2967 2968 2968 2967 2966 2965 2964 2964 2963 2962 2961 2960 2959 2959 2957 2956 2954 2953 2951 2950 2948 2946 2945 2942 2940 2938 2936 2934 2931 2930 2927 2925 2924 2921 2920 2917 2915 2913 2911 2909 2907 2905 2903 2901 2899 2897 2895 2893 2891 2889 2887
3007 3007 3006 3005 3005 3004 3004 3003 3002 3001 3000 2998 2997 2996 2995 2994 2992 2991 2990 2988 2987 2985 2985 2984 2983 2982 2981 2980 2978 2976 2974 2971 2968 2966 2965 2965 2965 2965 2964 2963 2961 2960 2960 2959 2959 2958 2956 2956 2955 2954 2953 2951 2950 2948 2946 2945 2943 2941 2939 2936 2934 2932 2930 2927 2925 2923 2921 2919 2917 2915 2913 2911 2909 2907 2905 2902 2900 2898 2896 2894 2892 2890 2887 2885 2883 2881
3005 3004 3004 3003 3002 3002 3001 3000 2999 2998 2997 2996 2995 2993 2992 2991 2990 2989 2987 2985 2984 2983 2982 2981 2980 2979 2978 2977 2976 2974 2971 2969 2966 2964 2963 2963 2963 2962 2961 2960 2958 2957 2956 2955 2955 2954 2953 2952 2951 2950 2949 2947 2946 2944 2943 2941 2939 2937 2935 2933 2930 2928 2926 2923 2921 2919 2917 2915 2913 2910 2908 2906 2904 2902 2900 2898 2895 2893 2891 2889 2886 2884 2882 2880 2878 2876
3002 3001 3001 3000 3000 2999 2999 2998 2997 2996 2995 2993 2992 2991 2990 2988 2987 2985 2984 2983 2981 2980 2979 2978 2977 2976 2975 2975 2973 2971 2969 2966 2964 2962 2962 2961 2960 2959 2958 2957 2955 2953 2952 2951 2950 2950 2950 2948 2947 2946 2945 2943 2942 2940 2938 2936 2935 2932 2930 2928 2926 2924 2922 2919 2917 2915 2913 2910 2908 2906 2904 2902 2900 2898 2895 2893 2891 2888 2886 2884 2881 2879 2877 2875 2873 2871
3000 2999 2998 2998 2997 2997 2996 2995 2994 2993 2992 2991 2990 2988 2986 2985 2984 2983 2981 2980 2979 2978 2977 2976 2975 2973 2972 2972 2971 2969 2967 2964 2962 2960 2960 2959 2958 2957 2955 2954 2952 2950 2949 2947 2946 2946 2946 2945 2943 2942 2940 2939 2937 2936 2934 2932 2930 2928 2926 2924 2922 2920 2917 2915 2913 2911 2909 2906 2904 2902 2900 2898 2895 2893 2891 2888 2886 2884 2881 2879 2876 2874 2871 2869 2867 2865
2997 2997 2996 2995 2995 2994 2994 2993 2992 2991 2990 2988 2987 2985 2984 2982 2981 2980 2979 2978 2977 2975 2974 2973 2972 2971 2970 2969 2968 2967 2965 2962 2960 2958 2958 2957 2956 2955 2953 2952 2950 2948 2945 2943 2942 2941 2942 2941 2940 2938 2935 2934 2933 2931 2930 2927 2925 2923 2921 2920 2917 2915 2913 2911 2909 2906 2905 2902 2900 2898 2895 2893 2891 2889 2886 2884 2881 2879 2876 2874 2871 2868 2866 2864 2862 2860
2995 2995 2994 2993 2992 2992 2991 2990 2989 2988 2987 2985 2984 2982 2981 2980 2979 2978 2977 2975 2974 2973 2972 2971 2970 2968 2967 2966 2965 2964 2963 2960 2958 2956 2955 2954 2953 2952 2951 2949 2947 2945 2943 2941 2938 2936 2936 2936 2936 2935 2932 2930 2929 2927 2925 2923 2921 2919 2916 2915 2913 2910 2909 2906 2904 2902 2900 2898 2896 2894 2891 2889 2887 2884 2882 2879 2877 2875 2872 2869 2866 2864 2861 2859 2857 2855
2993 2992 2991 2991 2990 2989 2988 2987 2986 2985 2984 2982 2981 2980 2979 2978 2977 2975 2974 2973 2972 2971 2970 2968 2967 2966 2965 2964 2963 2961 2960 2958 2956 2955 2953 2952 2950 2950 2948 2947 2945 2943 2941 2939 2936 2934 2931 2930 2931 2931 2929 2927 2925 2923 2921 2919 2917 2914 2912 2910 2908 2906 2904 2902 2900 2898 2896 2894 2892 2890 2887 2885 2882 2880 2878 2875 2873 2870 2868 2865 2862 2860 2857 2855 2853 2851
2991 2990 2989 2989 2988 2987 2986 2985 2984 2982 2981 2980 2979 2978 2977 2976 2975 2974 2972 2971 2970 2969 2967 2966 2965 2964 2963 2962 2961 2960 2958 2956 2954 2953 2951 2950 2948 2947 2945 2944 2942 2940 2938 2936 2934 2932 2929 2927 2926 2925 2925 2924 2922 2920 2917 2915 2913 2910 2908 2906 2904 2902 2900 2898 2896 2894 2892 2890 2888 2886 2883 2881 2879 2876 2874 2871 2869 2866 2864 2861 2859 2856 2853 2850 2848 2846
2989 2988 2987 2986 2985 2985 2984 2982 2981 2980 2979 2978 2977 2976 2975 2974 2973 2971 2970 2969 2968 2967 2965 2964 2963 2962 2961 2960 2959 2958 2956 2954 2952 2950 2948 2947 2945 2944 2942 2941 2939 2937 2935 2933 2932 2930 2927 2925 2924 2922 2920 2920 2919 2917 2914 2911 2909 2907 2905 2902 2900 2898 2896 2894 2892 2890 2888 2886 2884 2881 2879 2876 2874 2872 2869 2867 2865 2862 2860 2857 2855 2852 2850 2847 2844 2841
2986 2985 2985 2984 2983 2982 2981 2980 2979 2978 2977 2976 2975 2974 2973 2972 2970 2970 2968 2967 2966 2965 2963 2962 2961 2960 2959 2958 2957 2956 2955 2952 2950 2948 2946 2944 2942 2941 2939 2938 2936 2934 2932 2930 2929 2927 2925 2923 2922 2920 2917 2915 2915 2914 2912 2909 2906 2904 2901 2899 2897 2895 2892 2890 2888 2886 2884 2881 2879 2877 2874 2872 2869 2867 2865 2862 2860 2858 2856 2854 2851 2849 2847 2844 2841 2838
2984 2983 2982 2981 2981 2980 2979 2978 2977 2976 2975 2974 2973 2972 2971 2970 2969 2967 2966 2965 2964 2963 2961 2960 2959 2958 2957 2956 2955 2954 2953 2951 2949 2946 2944 2942 2940 2938 2937 2935 2934 2932 2930 2928 2926 2924 2922 2920 2919 2917 2915 2913 2911 2910 2909 2907 2904 2901 2898 2896 2894 2891 2889 2887 2884 2882 2879 2877 2874 2872 2870 2867 2865 2862 2860 2858 2856 2854 2852 2850 2848 2846 2844 2841 2839 2836
2981 2981 2980 2979 2978 2978 2977 2976 2975 2974 2973 2972 2971 2970 2969 2968 2966 2965 2964 2963 2962 2961 2960 2959 2957 2956 2955 2954 2953 2951 2950 2949 2947 2945 2942 2940 2938 2936 2935 2933 2931 2930 2928 2925 2923 2921 2920 2918 2916 2914 2913 2910 2908 2906 2904 2902 2901 2899 2896 2893 2891 2888 2885 2883 2880 2878 2875 2872 2870 2868 2865 2863 2860 2858 2856 2855 2853 2851 2849 2847 2845 2844 2841 2839 2837 2834
2979 2979 2978 2977 2976 2975 2975 2974 2973 2972 2971 2970 2969 2968 2966 2965 2964 2963 2962 2961 2960 2959 2958 2957 2956 2955 2953 2952 2950 2949 2948 2946 2945 2943 2940 2938 2936 2935 2933 2931 2930 2928 2926 2924 2921 2919 2917 2915 2913 2911 2909 2907 2906 2904 2901 2899 2896 2894 2892 2890 2888 2885 2882 2879 2876 2874 2871 2869 2866 2864 2862 2860 2857 2855 2853 2851 2850 2848 2846 2845 2843 2841 2839 2836 2834 2832
2977 2976 2975 2975 2974 2973 2972 2971 2970 2970 2969 2967 2966 2965 2965 2963 2962 2961 2960 2959 2958 2957 2956 2955 2955 2953 2952 2950 2949 2947 2946 2944 2942 2941 2939 2937 2935 2933 2931 2930 2928 2926 2925 2922 2920 2918 2915 2913 2910 2908 2906 2904 2902 2900 2899 2896 2893 2890 2887 2885 2884 2882 2880 2877 2873 2870 2868 2865 2863 2861 2859 2856 2855 2852 2850 2849 2847 2845 2843 2841 2840 2838 2836 2833 2831 2829
2975 2974 2973 2972 2971 2971 2970 2969 2968 2967 2966 2965 2964 2963 2962 2961 2960 2959 2958 2957 2956 2955 2955 2954 2953 2952 2951 2950 2948 2946 2945 2943 2941 2940 2938 2935 2934 2932 2930 2928 2926 2924 2922 2920 2918 2916 2914 2911 2908 2906 2904 2901 2899 2896 2895 2893 2890 2887 2884 2881 2880 2878 2877 2875 2871 2868 2865 2863 2860 2858 2855 2854 2852 2850 2848 2846 2844 2842 2840 2838 2836 2835 2833 2830 2827 2825
2972 2971 2971 2970 2969 2969 2968 2967 2966 2965 2964 2963 2962 2961 2960 2959 2958 2957 2956 2955 2955 2954 2953 2952 2951 2950 2950 2948 2947 2945 2943 2942 2940 2938 2936 2934 2932 2930 2928 2926 2924 2922 2920 2918 2916 2914 2912 2909 2906 2904 2901 2899 2896 2894 2892 2890 2887 2885 2881 2879 2876 2875 2874 2872 2869 2865 2862 2860 2857 2855 2853 2851 2849 2848 2846 2844 2842 2840 2838 2835 2833 2830 2829 2826 2824 2821
2970 2969 2969 2968 2967 2966 2966 2965 2964 2963 2962 2961 2960 2959 2958 2957 2956 2956 2955 2954 2953 2952 2951 2950 2950 2949 2948 2947 2946 2944 2942 2940 2938 2936 2934 2932 2930 2928 2926 2924 2922 2920 2918 2915 2914 2911 2910 2907 2905 2902 2899 2897 2894 2891 2889 2887 2885 2882 2880 2876 2873 2871 2870 2869 2867 2864 2860 2857 2855 2853 2851 2849 2847 2845 2844 2842 2840 2837 2835 2832 2830 2827 2825 2822 2820 2818
2968 2967 2966 2966 2965 2964 2964 2963 2962 2961 2960 2959 2958 2957 2956 2955 2955 2954 2953 2952 2951 2950 2950 2949 2948 2947 2946 2945 2944 2943 2941 2939 2937 2935 2932 2930 2928 2926 2924 2922 2920 2918 2915 2913 2911 2909 2907 2905 2903 2900 2897 2894 2892 2889 2886 2884 2882 2880 2877 2874 2871 2868 2866 2865 2863 2861 2859 2855 2853 2850 2848 2846 2844 2842 2841 2839 2837 2834 2832 2829 2827 2824 2822 2819 2816 2814
2965 2965 2964 2964 2963 2962 2961 2961 2960 2959 2958 2957 2956 2955 2954 2953 2952 2952 2951 2950 2949 2948 2948 2947 2946 2945 2944 2943 2942 2941 2939 2937 2935 2933 2930 2928 2926 2924 2922 2920 2918 2915 2913 2911 2909 2906 2904 2902 2900 2898 2896 2893 2890 2887 2884 2881 2879 2877 2875 2872 2870 2866 2864 2861 2859 2857 2855 2853 2851 2849 2846 2844 2841 2840 2838 2836 2834 2831 2829 2826 2823 2821 2819 2816 2813 2810
2963 2963 2962 2961 2961 2960 2959 2958 2957 2956 2955 2955 2954 2953 2952 2951 2950 2950 2949 2948 2947 2946 2945 2945 2944 2942 2942 2940 2940 2938 2937 2935 2933 2931 2929 2926 2924 2922 2920 2918 2915 2913 2911 2909 2907 2905 2902 2900 2898 2896 2894 2891 2889 2886 2883 2879 2876 2874 2872 2870 2867 2865 2862 2860 2857 2854 2852 2850 2848 2846 2844 2841 2839 2836 2834 2832 2830 2828 2825 2822 2820 2817 2815 2813 2810 2807
2961 2960 2960 2959 2959 2958 2957 2956 2955 2955 2954 2953 2952 2951 2950 2949 2948 2948 2947 2946 2945 2944 2943 2942 2941 2940 2939 2938 2937 2935 2934 2933 2931 2929 2927 2925 2922 2920 2918 2916 2914 2911 2909 2907 2905 2903 2900 2898 2896 2893 2891 2889 2887 2884 2881 2878 2874 2871 2869 2867 2865 2862 2860 2857 2855 2852 2850 2847 2845 2843 2841 2839 2836 2833 2830 2828 2826 2824 2822 2819 2816 2814 2811 2809 2807 2804
2959 2958 2958 2957 2956 2955 2955 2954 2953 2952 2952 2951 2950 2949 2948 2947 2946 2945 2945 2944 2943 2942 2941 2940 2939 2938 2937 2935 2934 2933 2931 2930 2928 2926 2924 2922 2920 2918 2916 2914 2912 2910 2908 2905 2903 2901 2899 2897 2895 2892 2890 2886 2884 2881 2879 2876 2872 2869 2866 2864 2862 2860 2857 2855 2853 2850 2847 2845 2843 2840 2838 2835 2832 2830 2827 2825 2822 2820 2818 2816 2813 2811 2808 2805 2803 2800
2957 2956 2955 2955 2954 2954 2953 2952 2951 2950 2950 2949 2948 2947 2946 2945 2945 2944 2943 2942 2941 2940 2939 2938 2937 2936 2935 2933 2932 2930 2928 2926 2925 2923 2921 2919 2917 2916 2914 2912 2910 2908 2906 2904 2902 2900 2898 2896 2894 2891 2888 2885 2881 2878 2875 2873 2870 2866 2863 2861 2858 2856 2854 2852 2850 2848 2845 2843 2840 2838 2835 2832 2829 2826 2823 2820 2818 2816 2814 2812 2810 2807 2805 2802 2799 2795
2955 2954 2954 2953 2952 2951 2951 2950 2950 2949 2948 2947 2946 2945 2944 2944 2943 2942 2941 2940 2939 2938 2937 2936 2935 2934 2933 2931 2930 2928 2926 2924 2922 2920 2918 2916 2915 2913 2911 2909 2907 2905 2904 2902 2900 2898 2896 2894 2892 2890 2886 2882 2879 2875 2872 2870 2867 2864 2861 2858 2856 2853 2851 2849 2847 2845 2843 2840 2838 2835 2833 2830 2826 2823 2820 2816 2813 2811 2810 2807 2805 2803 2801 2798 2795 2791
2953 2952 2951 2951 2950 2950 2949 2948 2948 2947 2946 2945 2945 2944 2943 2942 2941 2940 2939 2938 2937 2936 2935 2934 2933 2932 2930 2929 2928 2926 2924 2922 2920 2918 2916 2914 2912 2910 2909 2907 2905 2903 2901 2899 2897 2895 2893 2891 2890 2888 2885 2881 2877 2873 2870 2866 2864 2862 2859 2857 2854 2851 2849 2847 2845 2843 2840 2838 2835 2833 2830 2827 2824 2821 2817 2813 2810 2807 2805 2803 2800 2798 2796 2794 2790 2787
2950 2950 2950 2949 2948 2948 2947 2946 2946 2945 2945 2944 2943 2942 2941 2940 2939 2938 2937 2936 2935 2934 2933 2932 2931 2930 2928 2927 2925 2924 2922 2920 2918 2916 2914 2912 2910 2908 2906 2904 2902 2900 2898 2895 2894 2892 2890 2888 2886 2885 2884 2881 2877 2873 2869 2865 2862 2859 2857 2855 2853 2850 2847 2845 2842 2840 2838 2836 2834 2831 2828 2825 2821 2818 2815 2810 2806 2802 2800 2798 2796 2794 2792 2790 2787 2784